EW3966 Weather Reports


time (UTC)temp
C
wind
direction
speed
KPH
gust
KPH
rain 1hr
cm
rain 24hr
cm
rain mn
cm
humidity
%
barometer
mb
20260506084047 13 266 22.5 43.5 0.00 0.00 0.00 86 1016.8
20260506083547 13 261 19.3 43.5 0.00 0.00 0.00 86 1016.7
20260506083047 13 268 19.3 41.8 0.00 0.00 0.00 87 1016.7
20260506082045 12 241 19.3 38.6 0.00 0.00 0.00 88 1016.7
20260506081544 12 256 17.7 43.5 0.00 0.00 0.00 88 1016.7
20260506081044 12 303 14.5 43.5 0.00 0.00 0.00 88 1016.8
20260506080543 12 212 19.3 41.8 0.00 0.00 0.00 89 1016.7
20260506073039 12 251 14.5 37.0 0.00 0.00 0.00 90 1017.2
20260506072143 11 267 16.1 41.8 0.00 0.00 0.00 90 1017.3
20260506071540 11 251 16.1 41.8 0.00 0.00 0.00 90 1017.3
20260506071037 11 203 12.9 37.0 0.00 0.00 0.00 91 1017.4
20260506070536 11 236 17.7 37.0 0.00 0.00 0.00 91 1017.4
20260506062031 11 242 12.9 29.0 0.00 0.00 0.00 92 1017.9
20260506061531 10 305 11.3 25.7 0.00 0.00 0.00 92 1017.8
20260506061030 10 256 12.9 29.0 0.00 0.00 0.00 92 1017.8
20260506060529 10 254 11.3 30.6 0.00 0.00 0.00 92 1017.9
20260506051025 9 203 16.1 38.6 0.00 0.00 0.00 89 1017.6
20260506050524 9 247 16.1 41.8 0.00 0.00 0.00 89 1017.6
20260506045021 9 244 14.5 37.0 0.00 0.00 0.00 86 1017.8
20260506044522 9 194 11.3 30.6 0.00 0.00 0.00 85 1017.8
20260506044018 9 275 14.5 35.4 0.00 0.00 0.00 85 1017.9
20260506043522 10 207 12.9 35.4 0.00 0.00 0.00 84 1017.9
20260506043017 10 249 11.3 24.1 0.00 0.00 0.00 83 1017.9
20260506042016 10 184 9.7 20.9 0.00 0.00 0.00 82 1017.8
20260506041514 10 230 9.7 22.5 0.00 0.00 0.00 81 1017.7
20260506041013 10 243 11.3 22.5 0.00 0.00 0.00 80 1017.8
20260506040513 10 193 11.3 20.9 0.00 0.00 0.00 79 1017.6
20260506040021 10 241 9.7 25.7 0.00 0.00 0.00 79 1017.6
20260506035514 10 203 14.5 25.7 0.00 0.00 0.00 78 1017.5
20260506035010 10 231 11.3 33.8 0.00 0.00 0.00 78 1017.5
20260506034518 10 208 12.9 33.8 0.00 0.00 0.00 78 1017.4
20260506034008 10 220 14.5 29.0 0.00 0.00 0.00 78 1017.3
20260506033507 10 228 16.1 29.0 0.00 0.00 0.00 78 1017.3
20260506033007 10 256 12.9 25.7 0.00 0.00 0.00 78 1017.2
20260506032009 10 276 12.9 29.0 0.00 0.00 0.00 78 1017.1
20260506031506 9 266 12.9 30.6 0.00 0.00 0.00 78 1017.1
20260506031005 9 191 14.5 30.6 0.00 0.00 0.00 78 1017.1
20260506030507 9 219 12.9 25.7 0.00 0.00 0.00 78 1017.1
20260506030011 10 255 12.9 30.6 0.00 0.00 0.00 77 1017.0
20260506025502 10 247 14.5 30.6 0.00 0.00 0.00 77 1017.1
20260506025101 10 232 12.9 30.6 0.00 0.00 0.00 77 1017.0
20260506024619 10 257 12.9 32.2 0.00 0.00 0.00 76 1016.9
20260506024059 10 267 14.5 32.2 0.00 0.00 0.00 76 1016.8
20260506023558 10 257 12.9 30.6 0.00 0.00 0.00 76 1016.7
20260506023057 10 205 14.5 41.8 0.00 0.00 0.00 75 1016.7
20260506022056 10 225 16.1 33.8 0.00 0.00 0.00 75 1016.6
20260506021558 10 218 12.9 35.4 0.00 0.00 0.00 75 1016.7
20260506021057 10 216 16.1 35.4 0.00 0.00 0.00 74 1016.6
20260506020555 10 264 16.1 37.0 0.00 0.00 0.00 75 1016.5
20260506020058 10 244 14.5 37.0 0.00 0.00 0.00 75 1016.4
20260506015555 10 209 16.1 35.4 0.00 0.00 0.00 75 1016.5
20260506015055 10 274 19.3 35.4 0.00 0.00 0.00 75 1016.4
20260506014554 10 230 16.1 33.8 0.00 0.00 0.00 75 1016.3
20260506014057 10 230 16.1 33.8 0.00 0.00 0.00 75 1016.2
20260506013558 10 243 16.1 33.8 0.00 0.00 0.00 76 1016.2
20260506013104 10 222 14.5 38.6 0.00 0.00 0.00 76 1016.1
20260506012052 10 209 11.3 29.0 0.00 0.00 0.00 77 1016.0
20260506011606 10 263 14.5 30.6 0.00 0.00 0.00 77 1016.2
20260506011052 10 213 14.5 30.6 0.00 0.00 0.00 77 1016.1
20260506010552 10 214 12.9 30.6 0.00 0.00 0.00 77 1016.1
20260506010056 10 232 12.9 30.6 0.00 0.00 0.00 77 1016.0
20260506005552 10 270 12.9 29.0 0.00 0.00 0.00 77 1016.1
20260506005053 10 262 12.9 25.7 0.00 0.00 0.00 78 1016.0
20260506004549 9 199 11.3 24.1 0.00 0.00 0.00 78 1015.9
20260506004049 9 239 9.7 24.1 0.00 0.00 0.00 78 1015.9
20260506003549 9 232 11.3 22.5 0.00 0.00 0.00 78 1015.8
20260506003049 9 271 11.3 30.6 0.00 0.00 0.00 78 1015.7
20260506002049 9 219 11.3 24.1 0.00 0.00 0.00 78 1015.6
20260506001548 9 214 9.7 30.6 0.00 0.00 0.00 78 1015.6
20260506001047 9 187 11.3 30.6 0.00 0.00 0.00 78 1015.5
20260506000548 9 235 9.7 30.6 0.00 0.00 0.00 78 1015.5
20260506000050 10 237 11.3 30.6 0.00 0.00 0.00 77 1015.4
20260505235546 10 261 8.0 19.3 0.00 0.00 0.00 77 1015.4
20260505235045 10 241 8.0 22.5 0.00 0.00 0.00 77 1015.4
20260505234545 10 242 8.0 22.5 0.00 0.00 0.00 77 1015.3
20260505234044 10 232 9.7 22.5 0.00 0.00 0.00 77 1015.3
20260505233543 10 182 8.0 22.5 0.00 0.00 0.00 76 1015.1
20260505233043 10 207 6.4 19.3 0.00 0.00 0.00 76 1015.0
20260505232045 10 249 4.8 20.9 0.00 0.00 0.00 75 1014.9
20260505231543 10 232 11.3 20.9 0.00 0.00 0.00 74 1014.8
20260505231043 10 212 8.0 17.7 0.00 0.00 0.00 73 1014.7
20260505230540 11 240 8.0 17.7 0.00 0.00 0.00 73 1014.4
20260505230051 11 185 1.6 14.5 0.00 0.00 0.00 72 1014.4
20260505225539 11 220 4.8 17.7 0.00 0.00 0.00 72 1014.2
20260505225039 11 203 6.4 17.7 0.00 0.00 0.00 71 1014.2
20260505224536 11 255 3.2 16.1 0.00 0.00 0.00 71 1014.2
20260505224040 11 185 8.0 16.1 0.00 0.00 0.00 70 1014.0
20260505223534 11 205 4.8 20.9 0.00 0.00 0.00 69 1013.9
20260505223040 12 256 3.2 20.9 0.00 0.00 0.00 69 1013.8
20260505222036 12 222 8.0 24.1 0.00 0.00 0.00 69 1013.5
20260505221536 12 232 6.4 24.1 0.00 0.00 0.00 68 1013.4
20260505221035 12 222 6.4 30.6 0.00 0.00 0.00 68 1013.3
20260505220532 12 264 9.7 30.6 0.00 0.00 0.00 68 1013.3
20260505220035 12 246 9.7 32.2 0.00 0.00 0.00 67 1013.1
20260505215531 12 213 9.7 32.2 0.00 0.00 0.00 66 1013.2
20260505215030 12 268 9.7 24.1 0.00 0.00 0.00 66 1013.0
20260505214530 12 218 11.3 24.1 0.00 0.00 0.00 65 1012.9
20260505214029 13 210 12.9 29.0 0.00 0.00 0.00 64 1012.9
20260505213528 13 229 11.3 30.6 0.00 0.00 0.00 63 1012.7
20260505213038 13 234 11.3 25.7 0.00 0.00 0.00 62 1012.6
20260505212027 13 178 8.0 25.7 0.00 0.00 0.00 57 1012.4
20260505211527 14 272 9.7 30.6 0.00 0.00 0.00 54 1012.2
20260505211027 14 216 11.3 30.6 0.00 0.00 0.00 52 1012.1
20260505210526 15 261 8.0 35.4 0.00 0.00 0.00 49 1012.2
20260505210026 15 236 12.9 35.4 0.00 0.00 0.00 47 1012.2
20260505205524 15 241 14.5 30.6 0.00 0.00 0.00 45 1012.0
20260505205025 15 249 11.3 32.2 0.00 0.00 0.00 44 1012.1
20260505204524 15 204 14.5 32.2 0.00 0.00 0.00 43 1012.0
20260505204025 15 284 17.7 32.2 0.00 0.00 0.00 41 1011.8
20260505203524 15 217 12.9 38.6 0.00 0.00 0.00 41 1011.8
20260505203036 15 249 11.3 25.7 0.00 0.00 0.00 41 1011.9
20260505202022 15 159 12.9 41.8 0.00 0.00 0.00 40 1011.8
20260505201522 15 216 16.1 41.8 0.00 0.00 0.00 40 1011.7
20260505201023 15 257 12.9 35.4 0.00 0.00 0.00 39 1011.7
20260505200523 15 209 12.9 35.4 0.00 0.00 0.00 39 1011.7
20260505200031 15 271 12.9 35.4 0.00 0.00 0.00 40 1011.7
20260505195519 15 232 14.5 35.4 0.00 0.00 0.00 41 1011.6
20260505195021 15 197 12.9 38.6 0.00 0.00 0.00 41 1011.5
20260505194518 15 191 14.5 30.6 0.00 0.00 0.00 41 1011.4
20260505194018 15 214 14.5 38.6 0.00 0.00 0.00 42 1011.3
20260505193517 15 206 16.1 37.0 0.00 0.00 0.00 43 1011.3
20260505193017 15 224 12.9 40.2 0.00 0.00 0.00 43 1011.3
20260505192018 15 205 19.3 40.2 0.00 0.00 0.00 41 1011.2
20260505191517 15 241 19.3 40.2 0.00 0.00 0.00 42 1011.1
20260505191016 15 217 12.9 41.8 0.00 0.00 0.00 43 1011.1
20260505190519 15 216 17.7 41.8 0.00 0.00 0.00 44 1011.0
20260505190016 15 236 9.7 35.4 0.00 0.00 0.00 44 1010.9
20260505185518 15 220 17.7 37.0 0.00 0.00 0.00 43 1010.8
20260505185014 15 227 14.5 45.1 0.00 0.00 0.00 42 1010.7
20260505184519 15 204 16.1 53.1 0.00 0.00 0.00 43 1010.7
20260505184014 15 230 16.1 41.8 0.00 0.00 0.00 44 1010.7
20260505183513 15 250 16.1 41.8 0.00 0.00 0.00 44 1010.6
20260505183013 15 205 14.5 38.6 0.00 0.00 0.00 45 1010.6
20260505182012 15 226 14.5 40.2 0.00 0.00 0.00 44 1010.6
20260505181512 15 230 14.5 41.8 0.00 0.00 0.00 43 1010.6
20260505181011 15 284 12.9 46.7 0.00 0.00 0.00 44 1010.6
20260505180518 15 245 17.7 46.7 0.00 0.00 0.00 43 1010.7
20260505180010 15 212 14.5 43.5 0.00 0.00 0.00 43 1010.4
20260505175510 15 255 19.3 45.1 0.00 0.00 0.00 42 1010.7
20260505175009 15 218 16.1 46.7 0.00 0.00 0.00 40 1010.7
20260505174514 15 237 16.1 46.7 0.00 0.00 0.00 41 1010.5
20260505174009 15 225 12.9 46.7 0.00 0.00 0.00 42 1010.5
20260505173512 15 264 17.7 37.0 0.00 0.00 0.00 42 1010.6
20260505173018 15 220 16.1 46.7 0.00 0.00 0.00 43 1010.6
20260505172007 15 172 16.1 46.7 0.00 0.00 0.00 42 1010.4
20260505171507 15 200 14.5 46.7 0.00 0.00 0.00 43 1010.5
20260505171010 15 278 17.7 46.7 0.00 0.00 0.00 44 1010.2
20260505170504 15 275 19.3 46.7 0.00 0.00 0.00 43 1010.2
20260505170004 15 228 16.1 46.7 0.00 0.00 0.00 42 1010.3
20260505165503 15 164 17.7 46.7 0.00 0.00 0.00 41 1010.1
20260505165003 15 234 16.1 51.5 0.00 0.00 0.00 40 1010.1
20260505164503 15 185 16.1 51.5 0.00 0.00 0.00 39 1010.3
20260505164003 15 255 14.5 43.5 0.00 0.00 0.00 39 1010.2
20260505163501 15 257 16.1 43.5 0.00 0.00 0.00 39 1009.9
20260505163009 15 245 17.7 33.8 0.00 0.00 0.00 39 1009.9
20260505162001 15 278 19.3 46.7 0.00 0.00 0.00 40 1010.0
20260505161600 15 266 16.1 40.2 0.00 0.00 0.00 40 1009.8
20260505161059 15 205 14.5 40.2 0.00 0.00 0.00 42 1009.7
20260505160559 15 232 19.3 37.0 0.00 0.00 0.00 41 1009.7
20260505153108 15 216 14.5 33.8 0.00 0.00 0.00 46 1009.3
20260505152052 14 234 16.1 37.0 0.00 0.00 0.00 46 1009.3
20260505151556 14 289 14.5 35.4 0.00 0.00 0.00 46 1009.3
20260505151052 14 234 16.1 38.6 0.00 0.00 0.00 48 1009.0
20260505150549 14 201 16.1 38.6 0.00 0.00 0.00 48 1009.1
20260505140543 12 197 14.5 33.8 0.00 0.00 0.00 60 1008.8
20260505125031 11 228 9.7 22.5 0.00 0.00 0.00 72 1008.1
20260505124531 11 200 11.3 32.2 0.00 0.00 0.00 72 1007.9
20260505124029 11 231 11.3 32.2 0.00 0.00 0.00 74 1007.9
20260505123528 11 267 14.5 32.2 0.00 0.00 0.00 75 1007.9
20260505123028 11 195 11.3 32.2 0.00 0.00 0.00 74 1007.8
20260505122027 11 212 8.0 25.7 0.00 0.00 0.00 77 1007.6
20260505121529 10 219 11.3 45.1 0.00 0.00 0.00 77 1007.6
20260505121025 10 194 14.5 45.1 0.00 0.00 0.00 77 1007.3
20260505120524 10 180 11.3 35.4 0.00 0.00 0.00 77 1007.4
20260505120023 10 200 16.1 38.6 0.00 0.00 0.00 78 1007.3
20260505115523 10 209 12.9 38.6 0.00 0.00 0.00 78 1007.2
20260505115024 10 254 14.5 33.8 0.00 0.00 0.00 77 1007.2
20260505114532 10 185 11.3 33.8 0.00 0.00 0.00 78 1007.3
20260505114022 10 216 9.7 33.8 0.00 0.00 0.00 78 1007.4
20260505113521 10 230 9.7 32.2 0.00 0.00 0.00 78 1007.4
20260505113020 10 253 8.0 29.0 0.00 0.00 0.00 78 1007.5
20260505112019 10 223 11.3 32.2 0.00 0.00 0.00 78 1007.4
20260505111519 9 224 9.7 32.2 0.00 0.00 0.00 78 1007.3
20260505111018 9 217 9.7 35.4 0.00 0.00 0.00 78 1007.2
20260505110517 10 239 12.9 35.4 0.00 0.00 0.00 77 1007.0
20260505102008 8 272 11.3 25.7 0.00 0.00 0.00 81 1006.1
20260505101508 8 215 12.9 24.1 0.00 0.00 0.00 81 1006.0
20260505101007 7 257 9.7 29.0 0.00 0.00 0.00 82 1006.1
20260505100506 7 201 12.9 29.0 0.00 0.00 0.00 82 1006.0
20260505100008 7 237 9.7 24.1 0.00 0.00 0.00 82 1005.8
20260505095505 7 222 9.7 24.1 0.00 0.00 0.00 83 1005.7
20260505095003 7 168 8.0 24.1 0.00 0.00 0.00 83 1005.8
20260505094504 7 234 9.7 29.0 0.00 0.00 0.00 83 1005.9
20260505094001 7 246 9.7 29.0 0.00 0.00 0.00 84 1005.8
20260505093600 6 261 9.7 22.5 0.00 0.00 0.00 84 1005.5
20260505093102 6 201 9.7 22.5 0.00 0.00 0.00 84 1005.4
20260505092659 6 240 9.7 29.0 0.00 0.00 0.00 85 1005.5
20260505092058 6 229 12.9 29.0 0.00 0.00 0.00 85 1005.4
20260505091602 6 219 11.3 22.5 0.00 0.00 0.00 85 1005.2
20260505091058 6 212 8.0 20.9 0.00 0.00 0.00 86 1005.1
20260505090558 5 260 9.7 22.5 0.00 0.00 0.00 86 1005.1
20260505090101 5 261 9.7 22.5 0.00 0.00 0.00 86 1005.0
20260505085558 5 237 11.3 24.1 0.00 0.00 0.00 87 1005.1
20260505085105 5 255 8.0 29.0 0.00 0.00 0.00 87 1005.1
20260505084557 5 230 9.7 19.3 0.00 0.00 0.00 87 1005.2